Darlington, SC

10:30 PM EST on February 19, 2017 (GMT -0500)
Darlington County Jetport

Weather History for KUDG - October, 2013

Change the Weather History Date:

Monday, October 14, 2013

  Actual Average (KFLO) Record (KFLO)
Temperature  
Mean Temperature 68 °F -  
Max Temperature 71 °F 78 °F 87 °F (1969)
Min Temperature 64 °F 53 °F 32 °F (1988)
Cooling Degree Days 2    
Growing Degree Days 18 (Base 50)    
Moisture  
Dew Point 60 °F    
Average Humidity 81    
Maximum Humidity 88    
Minimum Humidity 69    
Precipitation  
Precipitation 0.01 in - - ()
Sea Level Pressure  
Sea Level Pressure 30.18 in    
Wind  
Wind Speed 9 mph (NNE)    
Max Wind Speed 13 mph    
Max Gust Speed 18 mph    
Visibility 9 miles    
Events      
Averages and records for this station are not official NWS values.
T = Trace of Precipitation, MM = Missing Value Source: NWS Daily Summary

Daily Weather History Graph

Daily Weather History Graph

Search for Another Location

Airport or City:

Trip Planner

Search our weather history database for the weather conditions in past years. The results will help you decide how hot, cold, wet, or windy it might be!

Date:

Astronomy

Oct. 14, 2013 Rise Set
Actual Time 7:24 AM EDT 6:46 PM EDT
Civil Twilight 6:59 AM EDT 7:11 PM EDT
Nautical Twilight 6:29 AM EDT 7:40 PM EDT
Astronomical Twilight 6:00 AM EDT 8:09 PM EDT
Moon 4:05 PM EDT (10/14) 2:50 AM EDT (10/14)
Length of Visible Light 12h 12m
Length of Day
11h 21m
Waxing Gibbous, 79% of the Moon is Illuminated
Oct 14
Waxing Gibbous
Oct 18
Full
Oct 26
Last Quarter
Nov 3
New
Nov 10
First Quarter

Hourly Weather History & Observations

Time (EDT) Temp. Dew Point Humidity Pressure Visibility Wind Dir Wind Speed Gust Speed Precip Events Conditions
12:15 AM 66.2 °F 60.8 °F 83% 30.18 in 10.0 mi North 10.4 mph - N/A   Overcast
12:35 AM 66.2 °F 60.8 °F 83% 30.18 in 10.0 mi North 8.1 mph - N/A   Overcast
12:55 AM 66.2 °F 60.8 °F 83% 30.18 in 10.0 mi North 9.2 mph - N/A   Overcast
1:15 AM 66.2 °F 60.8 °F 83% 30.18 in 10.0 mi NNE 8.1 mph - N/A   Overcast
1:35 AM 66.2 °F 60.8 °F 83% 30.17 in 10.0 mi North 9.2 mph - N/A   Overcast
1:55 AM 66.2 °F 60.8 °F 83% 30.17 in 10.0 mi North 8.1 mph - N/A   Overcast
2:15 AM 66.2 °F 60.8 °F 83% 30.16 in 10.0 mi North 9.2 mph - N/A   Overcast
2:35 AM 66.2 °F 60.8 °F 83% 30.16 in 8.0 mi North 11.5 mph - N/A   Overcast
2:55 AM 66.2 °F 60.8 °F 83% 30.16 in 10.0 mi North 9.2 mph - N/A   Overcast
3:15 AM 66.2 °F 60.8 °F 83% 30.16 in 10.0 mi North 8.1 mph - N/A   Overcast
3:35 AM 66.2 °F 60.8 °F 83% 30.15 in 10.0 mi North 9.2 mph - N/A   Overcast
3:55 AM 64.4 °F 60.8 °F 88% 30.16 in 10.0 mi North 10.4 mph - N/A   Overcast
4:15 AM 64.4 °F 60.8 °F 88% 30.16 in 5.0 mi North 9.2 mph - N/A   Overcast
4:35 AM 64.4 °F 60.8 °F 88% 30.16 in 6.0 mi North 9.2 mph - N/A   Overcast
4:55 AM 64.4 °F 60.8 °F 88% 30.16 in 6.0 mi North 9.2 mph - N/A   Overcast
5:15 AM 64.4 °F 60.8 °F 88% 30.17 in 10.0 mi North 9.2 mph - N/A   Overcast
5:35 AM 64.4 °F 60.8 °F 88% 30.16 in 9.0 mi North 8.1 mph - N/A   Overcast
5:55 AM 64.4 °F 60.8 °F 88% 30.17 in 5.0 mi NNE 8.1 mph - N/A   Overcast
6:15 AM 64.4 °F 60.8 °F 88% 30.17 in 10.0 mi NNE 11.5 mph - N/A   Overcast
6:35 AM 64.4 °F 60.8 °F 88% 30.17 in 9.0 mi NNE 9.2 mph - N/A   Overcast
6:55 AM 64.4 °F 60.8 °F 88% 30.17 in 10.0 mi NNE 8.1 mph - N/A   Overcast
7:15 AM 64.4 °F 60.8 °F 88% 30.17 in 5.0 mi North 8.1 mph - N/A   Overcast
7:35 AM 64.4 °F 60.8 °F 88% 30.18 in 2.5 mi NNE 8.1 mph - N/A   Overcast
7:55 AM 64.4 °F 60.8 °F 88% 30.18 in 3.0 mi NNE 8.1 mph - N/A   Overcast
8:15 AM 64.4 °F 60.8 °F 88% 30.19 in 5.0 mi North 10.4 mph - 0.01 in   Overcast
8:35 AM 64.4 °F 60.8 °F 88% 30.19 in 6.0 mi NNE 9.2 mph - 0.01 in   Overcast
8:55 AM 64.4 °F 60.8 °F 88% 30.20 in 3.0 mi NNE 9.2 mph - 0.01 in   Overcast
9:15 AM 64.4 °F 60.8 °F 88% 30.21 in 5.0 mi NNE 10.4 mph - N/A   Overcast
9:35 AM 66.2 °F 60.8 °F 83% 30.21 in 10.0 mi NNE 9.2 mph - N/A   Overcast
9:55 AM 66.2 °F 60.8 °F 83% 30.21 in 10.0 mi NNE 9.2 mph - N/A   Overcast
10:15 AM 66.2 °F 60.8 °F 83% 30.21 in 9.0 mi NNE 9.2 mph - N/A   Overcast
10:35 AM 66.2 °F 60.8 °F 83% 30.21 in 2.5 mi NNE 8.1 mph - N/A   Overcast
10:55 AM 66.2 °F 60.8 °F 83% 30.21 in 2.5 mi North 8.1 mph - N/A   Overcast
11:15 AM 66.2 °F 62.6 °F 88% 30.21 in 4.0 mi NNE 6.9 mph - N/A   Overcast
11:35 AM 66.2 °F 62.6 °F 88% 30.20 in 5.0 mi NNE 8.1 mph - N/A   Overcast
11:55 AM 66.2 °F 62.6 °F 88% 30.20 in 5.0 mi NNE 10.4 mph - N/A   Overcast
12:15 PM 66.2 °F 62.6 °F 88% 30.20 in 7.0 mi NNE 6.9 mph - N/A   Overcast
12:35 PM 66.2 °F 62.6 °F 88% 30.19 in 9.0 mi NNE 9.2 mph - N/A   Overcast
12:55 PM 68.0 °F 62.6 °F 83% 30.19 in 10.0 mi NE 8.1 mph - N/A   Overcast
1:15 PM 69.8 °F 62.6 °F 78% 30.18 in 10.0 mi NNE 6.9 mph - N/A   Overcast
1:35 PM 69.8 °F 62.6 °F 78% 30.18 in 10.0 mi NE 9.2 mph - N/A   Overcast
1:55 PM 69.8 °F 60.8 °F 73% 30.18 in 10.0 mi NE 10.4 mph - N/A   Overcast
2:15 PM 69.8 °F 60.8 °F 73% 30.16 in 10.0 mi NE 11.5 mph - N/A   Overcast
2:35 PM 69.8 °F 60.8 °F 73% 30.16 in 10.0 mi NNE 12.7 mph 18.4 mph N/A   Overcast
2:55 PM 71.6 °F 60.8 °F 69% 30.15 in 10.0 mi NE 11.5 mph - N/A   Overcast
3:15 PM 71.6 °F 60.8 °F 69% 30.15 in 10.0 mi NE 12.7 mph - N/A   Overcast
3:35 PM 69.8 °F 60.8 °F 73% 30.16 in 10.0 mi NE 10.4 mph - N/A   Overcast
3:55 PM 69.8 °F 60.8 °F 73% 30.16 in 10.0 mi NNE 10.4 mph - N/A   Overcast
4:15 PM 69.8 °F 60.8 °F 73% 30.16 in 10.0 mi NNE 11.5 mph - N/A   Overcast
4:35 PM 69.8 °F 60.8 °F 73% 30.16 in 10.0 mi NNE 10.4 mph - N/A   Overcast
4:55 PM 68.0 °F 60.8 °F 78% 30.15 in 10.0 mi NNE 9.2 mph - N/A   Overcast
5:15 PM 68.0 °F 60.8 °F 78% 30.16 in 10.0 mi NNE 12.7 mph - N/A   Overcast
5:35 PM 68.0 °F 60.8 °F 78% 30.16 in 10.0 mi NNE 8.1 mph - N/A   Overcast
5:55 PM 68.0 °F 60.8 °F 78% 30.16 in 10.0 mi North 6.9 mph 16.1 mph N/A   Overcast
6:15 PM 68.0 °F 60.8 °F 78% 30.16 in 10.0 mi North 8.1 mph - N/A   Overcast
6:35 PM 66.2 °F 59.0 °F 78% 30.17 in 10.0 mi NNE 9.2 mph 16.1 mph N/A   Overcast
6:55 PM 66.2 °F 59.0 °F 78% 30.17 in 10.0 mi NNE 9.2 mph - N/A   Overcast
7:15 PM 66.2 °F 59.0 °F 78% 30.16 in 10.0 mi NNE 10.4 mph - N/A   Overcast
7:35 PM 66.2 °F 59.0 °F 78% 30.17 in 10.0 mi NNE 8.1 mph - N/A   Overcast
7:55 PM 66.2 °F 59.0 °F 78% 30.17 in 10.0 mi NNE 8.1 mph - N/A   Overcast
8:15 PM 66.2 °F 59.0 °F 78% 30.18 in 10.0 mi NNE 8.1 mph - N/A   Overcast
8:35 PM 66.2 °F 59.0 °F 78% 30.18 in 10.0 mi NNE 9.2 mph - N/A   Overcast
8:55 PM 66.2 °F 57.2 °F 73% 30.18 in 10.0 mi NNE 8.1 mph - N/A   Overcast
9:15 PM 66.2 °F 57.2 °F 73% 30.19 in 10.0 mi NNE 9.2 mph - N/A   Overcast
9:35 PM 66.2 °F 57.2 °F 73% 30.19 in 10.0 mi North 8.1 mph - N/A   Overcast
9:55 PM 66.2 °F 57.2 °F 73% 30.20 in 10.0 mi NNE 6.9 mph - N/A   Overcast
10:15 PM 66.2 °F 57.2 °F 73% 30.21 in 10.0 mi North 8.1 mph - N/A   Overcast
10:35 PM 64.4 °F 57.2 °F 77% 30.20 in 10.0 mi NNE 8.1 mph - N/A   Overcast
10:55 PM 64.4 °F 57.2 °F 77% 30.20 in 10.0 mi NNE 6.9 mph - N/A   Overcast
11:15 PM 64.4 °F 57.2 °F 77% 30.20 in 10.0 mi NNE 8.1 mph - N/A   Overcast
11:35 PM 64.4 °F 55.4 °F 73% 30.20 in 10.0 mi North 8.1 mph - N/A   Overcast
11:55 PM 64.4 °F 55.4 °F 73% 30.19 in 10.0 mi NNE 6.9 mph - N/A   Overcast